Regional Weather Roundup
Issued by NWS Cleveland, OH

Home | Current Version | Previous Version | Graphics & Text | Print | Product List | Glossary On
Versions: 1 2 3 4 5 6 7 8 9 10 11 12 13 14 15 16 17 18 19 20 21 22 23 24 25 26 27 28 29 30 31 32 33 34 35 36 37 38 39 40 41 42 43 44 45 46 47 48 49 50
000
ASUS41 KCLE 261602
RWRCLE
OHIO REGIONAL WEATHER ROUNDUP
NATIONAL WEATHER SERVICE CLEVELAND, OH
1200 PM EDT TUE SEP 26 2017

NOTE: "FAIR" INDICATES FEW OR NO CLOUDS BELOW 12,000 FEET WITH NO
SIGNIFICANT WEATHER AND/OR OBSTRUCTIONS TO VISIBILITY.

OHZ001>008-015>018-024>027-034-035-043-044-261700-
   NORTHWEST OHIO

CITY           SKY/WX    TMP DP  RH WIND       PRES   REMARKS
DEFIANCE       SUNNY     84  64  50 S8        30.01F
FINDLAY        SUNNY     86  63  45 W8        30.02S
TOLEDO EXPRESS SUNNY     84  67  56 W5        30.01S
TOLEDO EXEC    SUNNY     85  64  49 SW9       30.02S
LIMA           SUNNY     85  65  51 SW7       30.04S
$$

OHZ009>014-019>023-028>033-038-089-261700-
   NORTHEAST OHIO

CITY           SKY/WX    TMP DP  RH WIND       PRES   REMARKS
CLE-HOPKINS    SUNNY     90  60  36 SW7       30.04F
CLE-LAKEFRONT  SUNNY     84  61  45 NW6       30.01F
CUY CO. ARPT   NOT AVBL
LORAIN-ELYRIA  SUNNY     85  59  41 W7        30.03F
ASHTABULA      SUNNY     85  63  47 SW10      30.04F
AKRON-CANTON   MOSUNNY   87  60  40 W5        30.06S
WOOSTER        SUNNY     84  61  45 VRB5      30.06S
MANSFIELD      SUNNY     84  62  47 S5        30.06S
YOUNGSTOWN     MOSUNNY   84  64  50 VRB5      30.05F
$$

OHZ042-051>053-060>062-070>072-077>081-261700-
  SOUTHWEST OHIO

CITY           SKY/WX    TMP DP  RH WIND       PRES   REMARKS
CINC-COVINGTON MOSUNNY   84  66  54 NW5       30.05S
CINC-LUNKEN    SUNNY     83  68  60 S3        30.04F
HAMILTON       SUNNY     85  67  54 SW6       30.05F
DAYTON         MOSUNNY   83  62  49 SW5       30.06S
WRIGHT-PAT AFB SUNNY     83  64  52 SW3       30.04F
DAYTON GENERAL SUNNY     82  62  50 SW3       30.05S
WILMINGTON     SUNNY     83  65  54 SW5       30.05F
$$

OHZ036-037-039>041-045>050-054>059-063>069-073>076-082>088-261700-
  CENTRAL AND SOUTHEAST OHIO

CITY           SKY/WX    TMP DP  RH WIND       PRES   REMARKS
COLUMBUS       SUNNY     85  64  49 NW5       30.04S
OSU AIRPORT    SUNNY     84  66  54 SW5       30.05S
BOLTON FIELD   SUNNY     82  66  57 W6        30.05F
RICKENBACK AFB SUNNY     82  63  52 N3        30.04S
NEWARK         SUNNY     84  64  50 CALM      30.04F
MARION         SUNNY     84  61  45 SW5       30.05F
LANCASTER      SUNNY     85  64  49 VRB5      30.04F
ZANESVILLE     SUNNY     84  64  50 CALM      30.04F
NEW PHILLY     NOT AVBL
$$




USA.gov is the U.S. government's official web portal to all federal, state and local government web resources and services.